sat.trackr.live / text

‹ back to catalog

STARLINK-3778

NORAD 52276 · 2022-041R

PAYLOAD ACTIVE UNKNOWN

§ Identity

Operator
Country
US
Launch date
2022-04-21
Launch site
AFETR
Launch vehicle
Mass (kg)
RCS (m²)

Purposes: comms

External: N2YO · Heavens-Above · Gunter

§ Orbital elements

Epoch: 2026-05-25T02:41:59.263872Z

Period
95.44 min
Inclination
53.2143°
Eccentricity
0.0001155
Mean motion
15.08854407 rev/d
Perigee alt
538.9 km
Apogee alt
540.5 km
Semi-major
6,917.8 km
B*
-2.1708e-4
RAAN
126.0432°
Arg perigee
79.1255°
Mean anomaly
280.9867°
Rev number
22,590

§ Raw data

STARLINK-37781 52276U 22041R   26145.11249148 -.00003742  00000+0 -21708-3 0  99972 52276  53.2143 126.0432 0001155  79.1255 280.9867 15.08854407225901

JSON: /api/v1/satellites/52276 · /tle

For live sub-satellite position, see the globe view (requires WebGL).

§ Visibility from observer

Set your observer location to see the next 7 days of passes ≥ 10°. The values pass through the URL so the page stays shareable.

No JS? Fill the form by hand. The geolocation button needs JavaScript.